Flag for Belgium Weather past 2 weeks in Kortrijk, Belgium

Now
61 °F

Partly cloudy.


Feels Like: 61 °F
Forecast: 57 / 69 °F
Wind: 5 mph from Southeast

Location: Lille Airport

Current Time: Aug 27, 2014 at 11:27:53 PM

Latest Report: Aug 27, 2014 at 11:00 PM


Visibility: N/A

Pressure: 29.98 "Hg

Humidity: 88%

Dew point: 57 °F

Location of KortrijkLocation

Historic Weather in Kortrijk — Graph

°F

Kortrijk temperature yesterday

Maximum temperature yesterday: 70 °F (at 4:30 PM)
Minimum temperature yesterday: 57 °F (at 2:30 AM)
Average temperature yesterday: 62 °F

Past Weeks' High & Low Weather Summary

 TemperatureHumidityPressure
High72 °F (Aug 13, 3:30 PM)100% (Aug 13, 5:30 AM)30.15 "Hg (Aug 13, 5:30 AM)
Low46 °F (Aug 20, 5:00 AM)43% (Aug 23, 5:00 PM)29.59 "Hg (Aug 26, 2:00 AM)
Average59 °F80%29.91 "Hg
* Reported Aug 12 10:00 PM — Aug 27 10:00 PM, Kortrijk, Weather by CustomWeather, © 2014

Note: Actual official high and low records may vary slightly from our data, if they occured in-between our weather recording intervals... More about our weather records

Advertising

Kortrijk weather history for previous 24 hours

 ConditionsComfort  
Time TempWeatherWind HumidityBarometerVisibility
10:00 PM
Aug 27
63 °FPassing clouds.3 mph88%29.98 "HgN/A
9:30 PM63 °FPartly sunny.3 mph88%29.98 "HgN/A
9:00 PM63 °FPartly sunny.3 mph88%29.95 "HgN/A
8:30 PM63 °FSunny.5 mph88%29.98 "Hg10 mi
8:00 PM64 °FSunny.3 mph83%29.98 "Hg10 mi
7:00 PM68 °FSunny.6 mph73%29.98 "Hg10 mi
6:30 PM68 °FPassing clouds.5 mph69%29.98 "HgN/A
6:00 PM68 °FPartly sunny.3 mph69%29.98 "HgN/A
4:30 PM66 °FPartly sunny.3 mph73%29.98 "HgN/A
4:00 PM66 °FBroken clouds.3 mph73%29.98 "HgN/A
3:30 PM66 °FPartly sunny.3 mph73%29.98 "HgN/A
3:00 PM66 °FBroken clouds.5 mph68%29.98 "HgN/A
2:30 PM66 °FPartly sunny.3 mph73%29.98 "HgN/A
2:00 PM64 °FPartly sunny.5 mph73%30.01 "HgN/A
1:30 PM64 °FPartly sunny.5 mph78%30.01 "HgN/A
1:00 PM63 °FPartly sunny.6 mph77%30.01 "HgN/A
12:30 PM61 °FPartly sunny.8 mph83%29.98 "Hg6 mi
12:00 PM59 °FPartly sunny.5 mph88%30.01 "Hg6 mi
11:00 AM59 °FPartly sunny.6 mph82%29.98 "Hg5 mi
10:30 AM57 °FPartly sunny.8 mph88%29.98 "Hg5 mi
10:00 AM57 °FPartly sunny.8 mph88%29.98 "Hg4 mi
9:30 AM57 °FFog.7 mph88%29.98 "Hg3 mi
9:00 AM55 °FFog.9 mph94%29.98 "Hg3 mi
8:00 AM55 °FFog.7 mph94%29.95 "Hg2 mi
7:30 AM55 °FFog.6 mph94%29.95 "Hg2 mi
7:00 AM55 °FFog.5 mph94%29.92 "Hg2 mi
6:30 AM55 °FFog.9 mph94%29.92 "Hg2 mi
6:00 AM55 °FFog.10 mph94%29.92 "Hg2 mi
5:30 AM57 °FFog.8 mph94%29.89 "Hg2 mi
5:00 AM57 °FFog.7 mph94%29.89 "Hg3 mi
4:30 AM57 °FFog.9 mph94%29.89 "Hg3 mi
4:00 AM57 °FFog.9 mph94%29.89 "Hg3 mi
3:30 AM57 °FFog.7 mph94%29.89 "Hg3 mi
3:00 AM57 °FLow clouds.9 mph94%29.86 "Hg4 mi
2:30 AM57 °FLow clouds.10 mph94%29.86 "Hg6 mi
2:00 AM59 °FPassing clouds.8 mph88%29.86 "Hg4 mi
1:30 AM59 °FPassing clouds.8 mph88%29.83 "Hg5 mi
1:00 AM59 °FPassing clouds.10 mph94%29.83 "Hg6 mi
12:30 AM59 °FPassing clouds.9 mph94%29.83 "Hg6 mi
12:00 AM59 °FPassing clouds.9 mph94%29.83 "HgN/A
11:30 PM
Aug 26
59 °FPassing clouds.10 mph94%29.80 "HgN/A
11:00 PM59 °FPassing clouds.10 mph94%29.80 "HgN/A
Weather by CustomWeather, © 2014

See weather overviewHow to use our weather pages